| time (UTC) | temp F | wind direction | speed knots | gust knots | rain 1hr in | rain 24hr in | rain mn in | humidity % | barometer mb |
| 20260505112027 | 52 | 355 | 0.0 | 0.0 | 0.00 | 0.00 | 0.00 | 97 | 1017.7 |
| 20260505111616 | 51 | 355 | 0.0 | 0.0 | 0.00 | 0.00 | 0.00 | 97 | 1017.8 |
| 20260505111016 | 51 | 355 | 0.0 | 0.0 | 0.00 | 0.00 | 0.00 | 97 | 1017.7 |
| 20260505110521 | 51 | 355 | 0.0 | 0.0 | 0.00 | 0.00 | 0.00 | 97 | 1017.7 |
| 20260505110142 | 51 | 355 | 0.0 | 0.0 | 0.00 | 0.00 | 0.00 | 96 | 1017.6 |
| 20260505102026 | 51 | 338 | 0.0 | 1.7 | 0.00 | 0.00 | 0.00 | 95 | 1017.4 |
| 20260505101626 | 51 | 338 | 0.0 | 0.9 | 0.00 | 0.00 | 0.00 | 95 | 1017.5 |
| 20260505101023 | 51 | 338 | 0.0 | 0.0 | 0.00 | 0.00 | 0.00 | 95 | 1017.6 |
| 20260505100539 | 51 | 339 | 0.0 | 0.0 | 0.00 | 0.00 | 0.00 | 95 | 1017.4 |
| 20260505100140 | 52 | 338 | 0.0 | 0.0 | 0.00 | 0.00 | 0.00 | 95 | 1017.5 |
| 20260505095522 | 52 | 338 | 0.0 | 1.7 | 0.00 | 0.00 | 0.00 | 94 | 1017.4 |
| 20260505095022 | 52 | 338 | 0.0 | 1.7 | 0.00 | 0.00 | 0.00 | 94 | 1017.5 |
| 20260505094639 | 52 | 338 | 0.0 | 0.0 | 0.00 | 0.00 | 0.00 | 94 | 1017.6 |
| 20260505094029 | 52 | 338 | 0.0 | 1.7 | 0.00 | 0.00 | 0.00 | 94 | 1017.4 |
| 20260505093519 | 52 | 338 | 0.0 | 1.7 | 0.00 | 0.00 | 0.00 | 93 | 1017.6 |
| 20260505093151 | 52 | 338 | 0.0 | 0.9 | 0.00 | 0.00 | 0.00 | 93 | 1017.5 |
| 20260505092541 | 52 | 338 | 0.0 | 0.0 | 0.00 | 0.00 | 0.00 | 93 | 1017.5 |
| 20260505092022 | 52 | 338 | 0.0 | 1.7 | 0.00 | 0.00 | 0.00 | 93 | 1017.5 |
| 20260505091647 | 53 | 338 | 0.0 | 1.7 | 0.00 | 0.00 | 0.00 | 94 | 1017.5 |
| 20260505091021 | 52 | 338 | 0.0 | 1.7 | 0.00 | 0.00 | 0.00 | 93 | 1017.3 |
| 20260505090516 | 52 | 338 | 0.0 | 0.9 | 0.00 | 0.00 | 0.00 | 93 | 1017.3 |
| 20260505090153 | 52 | 338 | 0.0 | 1.7 | 0.00 | 0.00 | 0.00 | 93 | 1017.6 |
| 20260505085522 | 52 | 339 | 0.0 | 1.7 | 0.00 | 0.00 | 0.00 | 92 | 1017.5 |
| 20260505085022 | 53 | 339 | 0.0 | 1.7 | 0.00 | 0.00 | 0.00 | 93 | 1017.3 |
| 20260505084651 | 53 | 338 | 0.0 | 1.7 | 0.00 | 0.00 | 0.00 | 92 | 1017.3 |
| 20260505084032 | 53 | 338 | 0.0 | 0.9 | 0.00 | 0.00 | 0.00 | 92 | 1017.2 |
| 20260505083519 | 53 | 338 | 0.0 | 1.7 | 0.00 | 0.00 | 0.00 | 93 | 1017.2 |
| 20260505083148 | 53 | 339 | 0.0 | 2.6 | 0.00 | 0.00 | 0.00 | 93 | 1017.2 |
| 20260505082535 | 53 | 339 | 0.0 | 2.6 | 0.00 | 0.00 | 0.00 | 94 | 1017.3 |
| 20260505082026 | 53 | 174 | 0.0 | 1.7 | 0.00 | 0.00 | 0.00 | 94 | 1017.2 |
| 20260505081702 | 53 | 174 | 0.0 | 1.7 | 0.00 | 0.00 | 0.00 | 94 | 1017.3 |
| 20260505081017 | 53 | 174 | 0.0 | 1.7 | 0.00 | 0.00 | 0.00 | 93 | 1017.2 |
| 20260505080540 | 54 | 174 | 0.9 | 1.7 | 0.00 | 0.00 | 0.00 | 94 | 1017.1 |
| 20260505080200 | 54 | 174 | 0.0 | 1.7 | 0.00 | 0.00 | 0.00 | 95 | 1017.0 |
| 20260505075528 | 54 | 174 | 0.0 | 2.6 | 0.00 | 0.00 | 0.00 | 95 | 1017.0 |
| 20260505075026 | 53 | 174 | 0.9 | 2.6 | 0.00 | 0.00 | 0.00 | 96 | 1017.1 |
| 20260505074636 | 53 | 177 | 0.9 | 1.7 | 0.00 | 0.00 | 0.00 | 93 | 1016.9 |
| 20260505074039 | 53 | 180 | 0.0 | 0.0 | 0.00 | 0.00 | 0.00 | 93 | 1017.0 |
| 20260505073531 | 53 | 180 | 0.0 | 0.0 | 0.00 | 0.00 | 0.00 | 93 | 1016.7 |
| 20260505073108 | 53 | 180 | 0.0 | 0.0 | 0.00 | 0.00 | 0.00 | 92 | 1016.8 |
| 20260505072532 | 53 | 180 | 0.0 | 0.0 | 0.00 | 0.00 | 0.00 | 91 | 1016.7 |
| 20260505072015 | 53 | 180 | 0.0 | 0.0 | 0.00 | 0.00 | 0.00 | 91 | 1016.8 |
| 20260505071636 | 54 | 180 | 0.0 | 0.0 | 0.00 | 0.00 | 0.00 | 91 | 1016.8 |
| 20260505071027 | 54 | 180 | 0.0 | 0.0 | 0.00 | 0.00 | 0.00 | 91 | 1016.8 |
| 20260505070540 | 54 | 180 | 0.0 | 0.0 | 0.00 | 0.00 | 0.00 | 91 | 1016.8 |
| 20260505070201 | 54 | 180 | 0.0 | 0.0 | 0.00 | 0.00 | 0.00 | 90 | 1016.9 |
| 20260505065527 | 54 | 180 | 0.0 | 0.0 | 0.00 | 0.00 | 0.00 | 90 | 1016.9 |
| 20260505065030 | 55 | 180 | 0.0 | 0.0 | 0.00 | 0.00 | 0.00 | 89 | 1016.9 |
| 20260505064635 | 55 | 180 | 0.0 | 1.7 | 0.00 | 0.00 | 0.00 | 89 | 1016.8 |
| 20260505064027 | 55 | 180 | 0.0 | 1.7 | 0.00 | 0.00 | 0.00 | 89 | 1016.8 |
| 20260505063545 | 55 | 180 | 0.0 | 1.7 | 0.00 | 0.00 | 0.00 | 89 | 1017.1 |
| 20260505063143 | 55 | 180 | 0.9 | 1.7 | 0.00 | 0.00 | 0.00 | 88 | 1016.8 |
| 20260505062518 | 55 | 180 | 0.0 | 1.7 | 0.00 | 0.00 | 0.00 | 87 | 1017.0 |
| 20260505062031 | 56 | 180 | 0.0 | 1.7 | 0.00 | 0.00 | 0.00 | 87 | 1016.9 |
| 20260505061639 | 56 | 180 | 0.9 | 1.7 | 0.00 | 0.00 | 0.00 | 87 | 1017.2 |
| 20260505061022 | 56 | 180 | 0.9 | 1.7 | 0.00 | 0.00 | 0.00 | 85 | 1017.2 |
| 20260505060521 | 56 | 180 | 0.0 | 1.7 | 0.00 | 0.00 | 0.00 | 85 | 1017.1 |
| 20260505060149 | 56 | 180 | 0.9 | 1.7 | 0.00 | 0.00 | 0.00 | 81 | 1017.1 |
| 20260505055540 | 57 | 180 | 0.0 | 0.0 | 0.00 | 0.00 | 0.00 | 82 | 1017.1 |
| 20260505055038 | 57 | 180 | 0.0 | 0.0 | 0.00 | 0.00 | 0.00 | 80 | 1017.0 |
| 20260505054623 | 57 | 180 | 0.0 | 0.0 | 0.00 | 0.00 | 0.00 | 79 | 1017.0 |
| 20260505054018 | 57 | 180 | 0.0 | 0.0 | 0.00 | 0.00 | 0.00 | 79 | 1017.0 |
| 20260505053527 | 57 | 180 | 0.0 | 0.0 | 0.00 | 0.00 | 0.00 | 80 | 1017.0 |
| 20260505053129 | 58 | 180 | 0.0 | 0.0 | 0.00 | 0.00 | 0.00 | 79 | 1017.0 |
| 20260505052533 | 58 | 180 | 0.0 | 0.0 | 0.00 | 0.00 | 0.00 | 77 | 1016.9 |
| 20260505052041 | 58 | 180 | 0.0 | 0.0 | 0.00 | 0.00 | 0.00 | 77 | 1017.1 |
| 20260505051643 | 58 | 180 | 0.0 | 0.0 | 0.00 | 0.00 | 0.00 | 76 | 1017.1 |
| 20260505051030 | 59 | 180 | 0.0 | 0.0 | 0.00 | 0.00 | 0.00 | 75 | 1017.2 |
| 20260505050537 | 59 | 180 | 0.0 | 0.0 | 0.00 | 0.00 | 0.00 | 74 | 1017.2 |
| 20260505050132 | 59 | 180 | 0.0 | 0.0 | 0.00 | 0.00 | 0.00 | 73 | 1017.2 |
| 20260505041705 | 61 | 180 | 0.0 | 0.9 | 0.00 | 0.00 | 0.00 | 69 | 1017.0 |
| 20260505041022 | 61 | 180 | 0.0 | 0.9 | 0.00 | 0.00 | 0.00 | 71 | 1017.2 |
| 20260505040537 | 61 | 180 | 0.0 | 0.9 | 0.00 | 0.00 | 0.00 | 72 | 1017.2 |
| 20260505040230 | 61 | 180 | 0.0 | 1.7 | 0.00 | 0.00 | 0.00 | 70 | 1017.0 |
| 20260505035524 | 62 | 180 | 0.0 | 0.9 | 0.00 | 0.00 | 0.00 | 69 | 1017.1 |
| 20260505035027 | 62 | 180 | 0.0 | 0.9 | 0.00 | 0.00 | 0.00 | 69 | 1017.2 |
| 20260505034630 | 62 | 180 | 0.0 | 0.9 | 0.00 | 0.00 | 0.00 | 69 | 1017.2 |
| 20260505034040 | 62 | 180 | 0.0 | 0.0 | 0.00 | 0.00 | 0.00 | 70 | 1017.1 |
| 20260505033532 | 62 | 180 | 0.0 | 0.0 | 0.00 | 0.00 | 0.00 | 70 | 1017.3 |
| 20260505033152 | 63 | 180 | 0.0 | 1.7 | 0.00 | 0.00 | 0.00 | 69 | 1017.3 |
| 20260505032531 | 63 | 180 | 0.0 | 1.7 | 0.00 | 0.00 | 0.00 | 70 | 1017.3 |
| 20260505032038 | 63 | 180 | 0.0 | 1.7 | 0.00 | 0.00 | 0.00 | 71 | 1017.2 |
| 20260505031632 | 63 | 180 | 0.0 | 1.7 | 0.00 | 0.00 | 0.00 | 71 | 1017.3 |
| 20260505031028 | 63 | 180 | 0.0 | 2.6 | 0.00 | 0.00 | 0.00 | 70 | 1017.3 |
| 20260505030529 | 63 | 180 | 0.0 | 2.6 | 0.00 | 0.00 | 0.00 | 68 | 1017.2 |
| 20260505030203 | 63 | 241 | 0.0 | 1.7 | 0.00 | 0.00 | 0.00 | 68 | 1017.3 |
| 20260505025519 | 63 | 241 | 0.0 | 1.7 | 0.00 | 0.00 | 0.00 | 68 | 1017.2 |
| 20260505025038 | 63 | 241 | 0.0 | 1.7 | 0.00 | 0.00 | 0.00 | 70 | 1017.2 |
| 20260505024619 | 63 | 241 | 0.0 | 0.0 | 0.00 | 0.00 | 0.00 | 70 | 1017.1 |
| 20260505024040 | 63 | 241 | 0.0 | 0.0 | 0.00 | 0.00 | 0.00 | 71 | 1017.3 |
| 20260505023521 | 63 | 241 | 0.0 | 0.0 | 0.00 | 0.00 | 0.00 | 71 | 1017.2 |
| 20260505023151 | 63 | 241 | 0.0 | 0.0 | 0.00 | 0.00 | 0.00 | 72 | 1017.2 |
| 20260505022519 | 63 | 241 | 0.0 | 0.0 | 0.00 | 0.00 | 0.00 | 74 | 1017.0 |
| 20260505022032 | 63 | 241 | 0.0 | 0.0 | 0.00 | 0.00 | 0.00 | 74 | 1017.1 |
| 20260505021641 | 64 | 241 | 0.0 | 0.0 | 0.00 | 0.00 | 0.00 | 72 | 1016.9 |
| 20260505021019 | 64 | 241 | 0.0 | 0.0 | 0.00 | 0.00 | 0.00 | 70 | 1017.0 |
| 20260505020539 | 64 | 241 | 0.0 | 0.0 | 0.00 | 0.00 | 0.00 | 69 | 1016.9 |
| 20260505020149 | 65 | 241 | 0.0 | 0.0 | 0.00 | 0.00 | 0.00 | 67 | 1016.8 |
| 20260505015529 | 65 | 241 | 0.0 | 0.0 | 0.00 | 0.00 | 0.00 | 66 | 1016.8 |
| 20260505015023 | 65 | 241 | 0.0 | 0.0 | 0.00 | 0.00 | 0.00 | 66 | 1016.7 |
| 20260505014644 | 66 | 241 | 0.0 | 0.0 | 0.00 | 0.00 | 0.00 | 66 | 1016.6 |
| 20260505014021 | 66 | 241 | 0.0 | 0.9 | 0.00 | 0.00 | 0.00 | 68 | 1016.7 |
| 20260505013523 | 66 | 241 | 0.0 | 3.5 | 0.00 | 0.00 | 0.00 | 67 | 1016.7 |
| 20260505013137 | 66 | 241 | 0.0 | 3.5 | 0.00 | 0.00 | 0.00 | 66 | 1016.6 |
| 20260505012538 | 66 | 241 | 0.0 | 3.5 | 0.00 | 0.00 | 0.00 | 66 | 1016.7 |
| 20260505012028 | 66 | 78 | 0.0 | 2.6 | 0.00 | 0.00 | 0.00 | 68 | 1016.5 |
| 20260505011651 | 66 | 78 | 0.0 | 2.6 | 0.00 | 0.00 | 0.00 | 68 | 1016.5 |
| 20260505011025 | 66 | 78 | 0.0 | 0.0 | 0.00 | 0.00 | 0.00 | 66 | 1016.4 |
| 20260505010544 | 67 | 78 | 0.0 | 0.0 | 0.00 | 0.00 | 0.00 | 65 | 1016.3 |
| 20260505010227 | 67 | 78 | 0.0 | 1.7 | 0.00 | 0.00 | 0.00 | 66 | 1016.3 |
| 20260505005520 | 67 | 78 | 0.0 | 1.7 | 0.00 | 0.00 | 0.00 | 67 | 1016.4 |
| 20260505005043 | 67 | 78 | 0.0 | 1.7 | 0.00 | 0.00 | 0.00 | 64 | 1016.2 |
| 20260505004625 | 67 | 78 | 0.0 | 0.9 | 0.00 | 0.00 | 0.00 | 63 | 1016.5 |
| 20260505004022 | 68 | 78 | 0.0 | 0.0 | 0.00 | 0.00 | 0.00 | 67 | 1016.2 |
| 20260505003537 | 68 | 78 | 0.0 | 0.0 | 0.00 | 0.00 | 0.00 | 66 | 1016.3 |
| 20260505003138 | 69 | 78 | 0.0 | 0.0 | 0.00 | 0.00 | 0.00 | 66 | 1016.2 |
| 20260505002540 | 69 | 78 | 0.0 | 0.0 | 0.00 | 0.00 | 0.00 | 62 | 1016.0 |
| 20260505002041 | 70 | 78 | 0.0 | 1.7 | 0.00 | 0.00 | 0.00 | 61 | 1015.9 |
| 20260505001654 | 70 | 78 | 0.0 | 1.7 | 0.00 | 0.00 | 0.00 | 61 | 1016.2 |
| 20260505001036 | 71 | 78 | 0.0 | 1.7 | 0.00 | 0.00 | 0.00 | 61 | 1016.0 |
| 20260505000529 | 71 | 51 | 0.0 | 1.7 | 0.00 | 0.00 | 0.00 | 61 | 1016.2 |
| 20260505000223 | 72 | 51 | 0.0 | 1.7 | 0.00 | 0.00 | 0.00 | 61 | 1016.2 |
| 20260504235528 | 72 | 229 | 0.0 | 1.7 | 0.00 | 0.00 | 0.00 | 57 | 1016.1 |
| 20260504235024 | 72 | 229 | 0.0 | 0.9 | 0.00 | 0.00 | 0.00 | 55 | 1016.1 |
| 20260504234649 | 73 | 229 | 0.0 | 0.9 | 0.00 | 0.00 | 0.00 | 56 | 1015.9 |
| 20260504234021 | 73 | 229 | 0.0 | 1.7 | 0.00 | 0.00 | 0.00 | 52 | 1015.8 |
| 20260504233529 | 73 | 229 | 0.0 | 1.7 | 0.00 | 0.00 | 0.00 | 51 | 1015.9 |
| 20260504233125 | 73 | 229 | 0.0 | 1.7 | 0.00 | 0.00 | 0.00 | 52 | 1015.9 |
| 20260504232529 | 74 | 229 | 0.0 | 1.7 | 0.00 | 0.00 | 0.00 | 52 | 1016.0 |
| 20260504232037 | 74 | 229 | 0.0 | 1.7 | 0.00 | 0.00 | 0.00 | 49 | 1016.0 |
| 20260504231703 | 74 | 229 | 0.9 | 2.6 | 0.00 | 0.00 | 0.00 | 48 | 1015.8 |
| 20260504231040 | 75 | 229 | 0.9 | 2.6 | 0.00 | 0.00 | 0.00 | 47 | 1016.0 |
| 20260504230525 | 75 | 234 | 0.9 | 2.6 | 0.00 | 0.00 | 0.00 | 50 | 1015.8 |
| 20260504230210 | 75 | 234 | 0.9 | 2.6 | 0.00 | 0.00 | 0.00 | 47 | 1015.8 |
| 20260504225526 | 76 | 242 | 0.9 | 3.5 | 0.00 | 0.00 | 0.00 | 46 | 1015.8 |
| 20260504225041 | 76 | 271 | 0.9 | 3.5 | 0.00 | 0.00 | 0.00 | 46 | 1015.8 |
| 20260504224701 | 76 | 253 | 0.9 | 2.6 | 0.00 | 0.00 | 0.00 | 45 | 1015.9 |
| 20260504224021 | 76 | 254 | 0.9 | 5.2 | 0.00 | 0.00 | 0.00 | 43 | 1015.8 |
| 20260504223539 | 76 | 259 | 0.9 | 4.3 | 0.00 | 0.00 | 0.00 | 45 | 1015.8 |
| 20260504223200 | 76 | 273 | 1.7 | 6.1 | 0.00 | 0.00 | 0.00 | 45 | 1016.0 |
| 20260504222527 | 76 | 267 | 1.7 | 6.1 | 0.00 | 0.00 | 0.00 | 45 | 1016.0 |
| 20260504222040 | 76 | 223 | 2.6 | 6.1 | 0.00 | 0.00 | 0.00 | 44 | 1015.9 |
| 20260504221711 | 76 | 206 | 3.5 | 6.1 | 0.00 | 0.00 | 0.00 | 44 | 1016.1 |
| 20260504221030 | 77 | 296 | 2.6 | 7.0 | 0.00 | 0.00 | 0.00 | 43 | 1016.0 |
| 20260504220522 | 77 | 255 | 2.6 | 5.2 | 0.00 | 0.00 | 0.00 | 43 | 1016.0 |
| 20260504220208 | 77 | 236 | 1.7 | 6.1 | 0.00 | 0.00 | 0.00 | 42 | 1015.9 |
| 20260504215532 | 76 | 277 | 2.6 | 7.0 | 0.00 | 0.00 | 0.00 | 43 | 1016.1 |
| 20260504215035 | 76 | 250 | 1.7 | 7.0 | 0.00 | 0.00 | 0.00 | 42 | 1016.0 |
| 20260504214654 | 76 | 248 | 0.9 | 2.6 | 0.00 | 0.00 | 0.00 | 43 | 1015.9 |
| 20260504214024 | 77 | 198 | 0.9 | 2.6 | 0.00 | 0.00 | 0.00 | 43 | 1015.9 |
| 20260504213531 | 77 | 198 | 0.9 | 3.5 | 0.00 | 0.00 | 0.00 | 43 | 1016.0 |
| 20260504213131 | 76 | 196 | 0.9 | 3.5 | 0.00 | 0.00 | 0.00 | 43 | 1016.0 |
| 20260504212523 | 76 | 191 | 0.9 | 5.2 | 0.00 | 0.00 | 0.00 | 43 | 1015.9 |
| 20260504212018 | 76 | 191 | 1.7 | 5.2 | 0.00 | 0.00 | 0.00 | 42 | 1015.9 |
| 20260504211633 | 76 | 211 | 1.7 | 4.3 | 0.00 | 0.00 | 0.00 | 42 | 1015.9 |
| 20260504211041 | 76 | 221 | 0.9 | 7.8 | 0.00 | 0.00 | 0.00 | 42 | 1015.8 |
| 20260504210531 | 76 | 254 | 0.9 | 7.8 | 0.00 | 0.00 | 0.00 | 44 | 1016.1 |
| 20260504210223 | 76 | 252 | 2.6 | 6.1 | 0.00 | 0.00 | 0.00 | 41 | 1015.9 |
| 20260504205522 | 76 | 180 | 1.7 | 5.2 | 0.00 | 0.00 | 0.00 | 42 | 1016.0 |
| 20260504205040 | 76 | 161 | 1.7 | 7.0 | 0.00 | 0.00 | 0.00 | 42 | 1016.1 |
| 20260504204641 | 76 | 189 | 2.6 | 7.0 | 0.00 | 0.00 | 0.00 | 43 | 1016.1 |
| 20260504204033 | 76 | 163 | 3.5 | 7.8 | 0.00 | 0.00 | 0.00 | 40 | 1016.2 |
| 20260504203529 | 76 | 230 | 1.7 | 7.8 | 0.00 | 0.00 | 0.00 | 42 | 1016.2 |
| 20260504203211 | 77 | 205 | 4.3 | 7.8 | 0.00 | 0.00 | 0.00 | 39 | 1016.4 |
| 20260504202537 | 77 | 208 | 2.6 | 6.1 | 0.00 | 0.00 | 0.00 | 42 | 1016.3 |
| 20260504202026 | 77 | 199 | 2.6 | 5.2 | 0.00 | 0.00 | 0.00 | 41 | 1016.3 |
| 20260504201630 | 77 | 239 | 1.7 | 6.1 | 0.00 | 0.00 | 0.00 | 40 | 1016.4 |
| 20260504201021 | 77 | 190 | 2.6 | 6.1 | 0.00 | 0.00 | 0.00 | 39 | 1016.3 |
| 20260504200535 | 77 | 197 | 2.6 | 7.0 | 0.00 | 0.00 | 0.00 | 36 | 1016.4 |
| 20260504200207 | 77 | 239 | 2.6 | 7.0 | 0.00 | 0.00 | 0.00 | 38 | 1016.4 |
| 20260504195525 | 77 | 256 | 1.7 | 7.0 | 0.00 | 0.00 | 0.00 | 38 | 1016.3 |
| 20260504195033 | 77 | 187 | 2.6 | 7.0 | 0.00 | 0.00 | 0.00 | 35 | 1016.6 |
| 20260504194709 | 77 | 199 | 2.6 | 7.0 | 0.00 | 0.00 | 0.00 | 35 | 1016.4 |
| 20260504194022 | 77 | 245 | 2.6 | 6.1 | 0.00 | 0.00 | 0.00 | 35 | 1016.5 |
| 20260504193537 | 77 | 186 | 2.6 | 5.2 | 0.00 | 0.00 | 0.00 | 35 | 1016.5 |
| 20260504193209 | 77 | 200 | 1.7 | 7.0 | 0.00 | 0.00 | 0.00 | 38 | 1016.7 |
| 20260504192518 | 76 | 279 | 2.6 | 7.0 | 0.00 | 0.00 | 0.00 | 42 | 1016.7 |
| 20260504192025 | 76 | 209 | 1.7 | 6.1 | 0.00 | 0.00 | 0.00 | 46 | 1016.9 |
| 20260504191653 | 76 | 226 | 2.6 | 4.3 | 0.00 | 0.00 | 0.00 | 40 | 1016.8 |
| 20260504191039 | 76 | 297 | 2.6 | 6.1 | 0.00 | 0.00 | 0.00 | 42 | 1017.0 |
| 20260504190522 | 76 | 292 | 2.6 | 6.1 | 0.00 | 0.00 | 0.00 | 41 | 1017.1 |
| 20260504190228 | 75 | 317 | 1.7 | 4.3 | 0.00 | 0.00 | 0.00 | 42 | 1017.2 |
| 20260504185537 | 76 | 244 | 1.7 | 6.1 | 0.00 | 0.00 | 0.00 | 42 | 1017.3 |
| 20260504185027 | 75 | 205 | 3.5 | 7.0 | 0.00 | 0.00 | 0.00 | 42 | 1017.4 |
| 20260504184649 | 75 | 182 | 1.7 | 7.0 | 0.00 | 0.00 | 0.00 | 43 | 1017.4 |
| 20260504184018 | 75 | 294 | 1.7 | 7.0 | 0.00 | 0.00 | 0.00 | 43 | 1017.6 |
| 20260504183526 | 75 | 123 | 2.6 | 5.2 | 0.00 | 0.00 | 0.00 | 41 | 1017.7 |
| 20260504183204 | 75 | 189 | 1.7 | 5.2 | 0.00 | 0.00 | 0.00 | 43 | 1017.8 |
| 20260504182533 | 74 | 210 | 0.9 | 3.5 | 0.00 | 0.00 | 0.00 | 43 | 1017.6 |
| 20260504182029 | 74 | 200 | 0.9 | 7.0 | 0.00 | 0.00 | 0.00 | 42 | 1017.8 |
| 20260504181659 | 74 | 167 | 2.6 | 7.0 | 0.00 | 0.00 | 0.00 | 41 | 1017.9 |
| 20260504181029 | 74 | 178 | 2.6 | 6.1 | 0.00 | 0.00 | 0.00 | 39 | 1018.0 |
| 20260504180530 | 74 | 219 | 2.6 | 6.1 | 0.00 | 0.00 | 0.00 | 44 | 1018.0 |
| 20260504180213 | 74 | 190 | 1.7 | 5.2 | 0.00 | 0.00 | 0.00 | 40 | 1018.1 |
| 20260504175526 | 74 | 186 | 2.6 | 4.3 | 0.00 | 0.00 | 0.00 | 43 | 1018.1 |
| 20260504175029 | 73 | 168 | 1.7 | 4.3 | 0.00 | 0.00 | 0.00 | 44 | 1018.3 |
| 20260504174656 | 73 | 207 | 1.7 | 4.3 | 0.00 | 0.00 | 0.00 | 43 | 1018.3 |
| 20260504174029 | 73 | 194 | 2.6 | 4.3 | 0.00 | 0.00 | 0.00 | 46 | 1018.5 |
| 20260504173522 | 73 | 169 | 1.7 | 5.2 | 0.00 | 0.00 | 0.00 | 45 | 1018.4 |
| 20260504173202 | 73 | 140 | 1.7 | 5.2 | 0.00 | 0.00 | 0.00 | 46 | 1018.3 |
| 20260504172525 | 73 | 209 | 0.0 | 4.3 | 0.00 | 0.00 | 0.00 | 48 | 1018.4 |
| 20260504172039 | 72 | 209 | 1.7 | 6.1 | 0.00 | 0.00 | 0.00 | 46 | 1018.3 |
| 20260504171701 | 72 | 192 | 1.7 | 6.1 | 0.00 | 0.00 | 0.00 | 46 | 1018.3 |
| 20260504171031 | 72 | 176 | 1.7 | 5.2 | 0.00 | 0.00 | 0.00 | 47 | 1018.3 |
| 20260504170547 | 72 | 202 | 2.6 | 5.2 | 0.00 | 0.00 | 0.00 | 49 | 1018.4 |
| 20260504170206 | 72 | 164 | 0.9 | 3.5 | 0.00 | 0.00 | 0.00 | 49 | 1018.5 |
| 20260504160226 | 69 | 309 | 1.7 | 4.3 | 0.00 | 0.00 | 0.00 | 53 | 1019.5 |
| 20260504151041 | 66 | 36 | 1.7 | 4.3 | 0.00 | 0.00 | 0.00 | 54 | 1019.6 |
| 20260504150528 | 66 | 295 | 0.9 | 4.3 | 0.00 | 0.00 | 0.00 | 57 | 1019.5 |
| 20260504150216 | 66 | 300 | 1.7 | 4.3 | 0.00 | 0.00 | 0.00 | 56 | 1019.6 |
| 20260504141041 | 62 | 300 | 1.7 | 4.3 | 0.00 | 0.00 | 0.00 | 65 | 1019.7 |
| 20260504140541 | 61 | 313 | 1.7 | 4.3 | 0.00 | 0.00 | 0.00 | 67 | 1019.6 |
| 20260504140222 | 61 | 308 | 0.9 | 3.5 | 0.00 | 0.00 | 0.00 | 69 | 1019.7 |
| 20260504130527 | 55 | 302 | 1.7 | 4.3 | 0.00 | 0.00 | 0.00 | 75 | 1019.7 |
| 20260504130210 | 55 | 296 | 2.6 | 6.1 | 0.00 | 0.00 | 0.00 | 75 | 1019.4 |
| 20260504120206 | 49 | 315 | 1.7 | 3.5 | 0.00 | 0.00 | 0.00 | 84 | 1019.2 |